User: anonymous   Login
Location: Luxembourg
(49.6117°N, 6.1300°E)
Time: 20:35:56
(UTC+02:00)
Language:

DOVE 4 - Orbit

View from above orbital plane
View from above orbital plane
View from above satellite
View from above satellite

Ground track
Ground track

The orbit data is extracted from the following two-line orbital elements,

1 39430U 13066Q   19296.40551263  .00000129  00000-0  32654-4 0  9994
2 39430  97.7604 244.7006 0150041 214.4310 144.7089 14.59298493315087
Epoch (UTC): 23 October 2019 09:43:56
Eccentricity: 0.0150041
inclination: 97.7604°
perigee height: 589 km
apogee height: 801 km
right ascension of ascending node: 244.7006°
argument of perigee: 214.4310°
revolutions per day: 14.59298493
mean anomaly at epoch: 144.7089°
orbit number at epoch: 31508

The dashed part of the orbit path shows where the satellite is in the earth's shadow,  

DLR